LOT321 EDDF-EDDM

Flight info

Callsign LOT321
Flight time 0h 41m
Altitude 23000
Route CINDY8S/18 CINDY Z74 HAREM T104 ROKIL ROKIL1B
Aircraft B738/M-SDE2E3FGHIRWXY/LB1

Departure

Time 2026-05-05 19:40
Airport Frankfurt Main Airport (EDDF)

Arrival

Time 2026-05-05 20:21
Airport Munich Airport (EDDM)
Time Latitude Longitude Altitude Speed Heading
2026-05-05 18:54 50.04848 8.58903 355 ft 0 kts 340°
2026-05-05 19:17 50.04834 8.58911 360 ft 2 kts 340°
2026-05-05 19:17 50.04818 8.58920 360 ft 2 kts 339°
2026-05-05 19:17 50.04803 8.58929 356 ft 2 kts 339°
2026-05-05 19:17 50.04788 8.58938 356 ft 1 kts 339°
2026-05-05 19:18 50.04786 8.58940 358 ft 0 kts 339°
2026-05-05 19:28 50.04786 8.58938 355 ft 1 kts 324°
2026-05-05 19:29 50.04785 8.58919 362 ft 4 kts 255°
2026-05-05 19:29 50.04758 8.58871 359 ft 9 kts 232°
2026-05-05 19:29 50.04719 8.58742 361 ft 17 kts 248°
2026-05-05 19:29 50.04665 8.58536 359 ft 22 kts 248°
2026-05-05 19:30 50.04614 8.58313 362 ft 22 kts 249°
2026-05-05 19:30 50.04569 8.58126 361 ft 15 kts 255°
2026-05-05 19:30 50.04599 8.58011 358 ft 10 kts 334°
2026-05-05 19:30 50.04662 8.57984 359 ft 9 kts 342°
2026-05-05 19:31 50.04706 8.57920 359 ft 8 kts 290°
2026-05-05 19:31 50.04696 8.57845 361 ft 7 kts 244°
2026-05-05 19:31 50.04677 8.57775 358 ft 7 kts 249°
2026-05-05 19:31 50.04656 8.57685 360 ft 10 kts 249°
2026-05-05 19:32 50.04626 8.57562 359 ft 14 kts 250°
2026-05-05 19:32 50.04590 8.57408 361 ft 17 kts 249°
2026-05-05 19:32 50.04552 8.57251 361 ft 4 kts 250°
2026-05-05 19:32 50.04537 8.57185 361 ft 10 kts 250°
2026-05-05 19:33 50.04503 8.57042 357 ft 18 kts 250°
2026-05-05 19:33 50.04451 8.56822 359 ft 25 kts 249°
2026-05-05 19:33 50.04383 8.56540 359 ft 30 kts 249°
2026-05-05 19:33 50.04311 8.56244 361 ft 28 kts 250°
2026-05-05 19:34 50.04246 8.55966 359 ft 26 kts 249°
2026-05-05 19:34 50.04184 8.55707 358 ft 25 kts 250°
2026-05-05 19:34 50.04127 8.55469 357 ft 22 kts 250°
2026-05-05 19:35 50.04021 8.55031 361 ft 21 kts 249°
2026-05-05 19:35 50.03970 8.54821 358 ft 21 kts 251°
2026-05-05 19:35 50.03921 8.54613 363 ft 20 kts 249°
2026-05-05 19:35 50.03873 8.54413 359 ft 21 kts 248°
2026-05-05 19:36 50.03800 8.54221 361 ft 21 kts 247°
2026-05-05 19:36 50.03747 8.54004 359 ft 22 kts 249°
2026-05-05 19:36 50.03693 8.53774 363 ft 22 kts 249°
2026-05-05 19:36 50.03657 8.53626 358 ft 22 kts 249°
2026-05-05 19:37 50.03610 8.53443 358 ft 14 kts 249°
2026-05-05 19:37 50.03577 8.53304 363 ft 14 kts 250°
2026-05-05 19:37 50.03545 8.53169 362 ft 13 kts 249°
2026-05-05 19:37 50.03514 8.53040 359 ft 13 kts 250°
2026-05-05 19:38 50.03484 8.52913 358 ft 12 kts 248°
2026-05-05 19:38 50.03449 8.52793 360 ft 12 kts 245°
2026-05-05 19:38 50.03418 8.52674 363 ft 12 kts 250°
2026-05-05 19:38 50.03390 8.52599 363 ft 4 kts 207°
2026-05-05 19:39 50.03364 8.52595 359 ft 4 kts 179°
2026-05-05 19:39 50.03277 8.52596 364 ft 37 kts 180°
2026-05-05 19:39 50.02747 8.52599 358 ft 112 kts 180°
2026-05-05 19:39 50.01784 8.52599 461 ft 160 kts 180°
2026-05-05 19:40 50.00625 8.52591 1140 ft 167 kts 181°
2026-05-05 19:40 49.99489 8.52580 2113 ft 161 kts 183°
2026-05-05 19:40 49.98319 8.52551 2603 ft 185 kts 183°
2026-05-05 19:40 49.96969 8.53021 2873 ft 217 kts 152°
2026-05-05 19:41 49.95865 8.54731 3306 ft 233 kts 126°
2026-05-05 19:41 49.95024 8.56925 3881 ft 238 kts 121°
2026-05-05 19:41 49.94249 8.59212 3937 ft 240 kts 112°
2026-05-05 19:41 49.93974 8.61857 4023 ft 263 kts 95°
2026-05-05 19:42 49.93875 8.64792 4110 ft 277 kts 94°
2026-05-05 19:42 49.93698 8.67782 4903 ft 279 kts 106°
2026-05-05 19:42 49.92810 8.70409 5842 ft 274 kts 134°
2026-05-05 19:42 49.91376 8.72290 6682 ft 274 kts 147°
2026-05-05 19:43 49.89780 8.74029 7502 ft 278 kts 148°
2026-05-05 19:43 49.88278 8.75957 8298 ft 287 kts 130°
2026-05-05 19:43 49.87234 8.78627 9154 ft 291 kts 121°
2026-05-05 19:43 49.86258 8.81402 9938 ft 296 kts 121°
2026-05-05 19:44 49.85253 8.84240 10303 ft 315 kts 122°
2026-05-05 19:44 49.84145 8.87320 10497 ft 340 kts 122°
2026-05-05 19:44 49.82950 8.90621 10716 ft 361 kts 121°
2026-05-05 19:44 49.81705 8.94057 11252 ft 369 kts 121°
2026-05-05 19:45 49.80442 8.97541 11971 ft 373 kts 121°
2026-05-05 19:45 49.79161 9.01067 12715 ft 377 kts 121°
2026-05-05 19:45 49.77867 9.04616 13505 ft 380 kts 121°
2026-05-05 19:45 49.76562 9.08204 14216 ft 384 kts 120°
2026-05-05 19:46 49.75625 9.12102 14958 ft 390 kts 105°
2026-05-05 19:46 49.75035 9.16204 15734 ft 392 kts 105°
2026-05-05 19:46 49.73995 9.20072 16407 ft 392 kts 126°
2026-05-05 19:46 49.72283 9.23299 17184 ft 391 kts 134°
2026-05-05 19:47 49.70456 9.26426 17924 ft 394 kts 134°
2026-05-05 19:47 49.68607 9.29569 18556 ft 397 kts 134°
2026-05-05 19:47 49.66751 9.32755 19171 ft 400 kts 134°
2026-05-05 19:47 49.64898 9.35977 19789 ft 402 kts 133°
2026-05-05 19:48 49.63039 9.39225 20400 ft 405 kts 133°
2026-05-05 19:48 49.61169 9.42497 20993 ft 408 kts 133°
2026-05-05 19:48 49.59292 9.45804 21562 ft 411 kts 133°
2026-05-05 19:48 49.57401 9.49144 22117 ft 414 kts 133°
2026-05-05 19:49 49.55498 9.52508 22671 ft 417 kts 133°
2026-05-05 19:49 49.53583 9.55888 22817 ft 422 kts 133°
2026-05-05 19:49 49.51634 9.59320 22829 ft 428 kts 133°
2026-05-05 19:49 49.49686 9.62744 22833 ft 432 kts 133°
2026-05-05 19:50 49.47712 9.66210 22821 ft 430 kts 133°
2026-05-05 19:50 49.45738 9.69672 22830 ft 429 kts 133°
2026-05-05 19:50 49.43765 9.73127 22827 ft 429 kts 133°
2026-05-05 19:50 49.41794 9.76575 22832 ft 429 kts 133°
2026-05-05 19:51 49.39825 9.80013 22832 ft 429 kts 133°
2026-05-05 19:51 49.37850 9.83453 22831 ft 429 kts 133°
2026-05-05 19:51 49.35865 9.86876 22834 ft 430 kts 134°
2026-05-05 19:51 49.33870 9.90292 22834 ft 430 kts 134°
2026-05-05 19:52 49.31870 9.93710 22827 ft 430 kts 134°
2026-05-05 19:52 49.29870 9.97125 22831 ft 430 kts 134°
2026-05-05 19:52 49.27868 10.00546 22831 ft 431 kts 134°
2026-05-05 19:52 49.25868 10.03960 22831 ft 431 kts 134°
2026-05-05 19:53 49.23869 10.07371 22831 ft 431 kts 134°
2026-05-05 19:53 49.21868 10.10780 22832 ft 430 kts 134°
2026-05-05 19:53 49.19868 10.14182 22833 ft 430 kts 134°
2026-05-05 19:53 49.17878 10.17599 22838 ft 430 kts 133°
2026-05-05 19:54 49.15896 10.21030 22846 ft 430 kts 133°
2026-05-05 19:54 49.13915 10.24454 22842 ft 430 kts 134°
2026-05-05 19:54 49.11885 10.27816 22848 ft 430 kts 135°
2026-05-05 19:54 49.09847 10.31076 22855 ft 430 kts 136°
2026-05-05 19:55 49.07776 10.34364 22857 ft 429 kts 136°
2026-05-05 19:55 49.05710 10.37656 22855 ft 429 kts 135°
2026-05-05 19:55 49.03652 10.40953 22853 ft 429 kts 135°
2026-05-05 19:55 49.01594 10.44258 22855 ft 429 kts 135°
2026-05-05 19:56 48.99540 10.47541 22856 ft 429 kts 136°
2026-05-05 19:56 48.97461 10.50805 22858 ft 428 kts 136°
2026-05-05 19:56 48.95417 10.53999 22841 ft 415 kts 136°
2026-05-05 19:56 48.93422 10.57135 22846 ft 410 kts 136°
2026-05-05 19:57 48.91455 10.60274 22857 ft 410 kts 135°
2026-05-05 19:57 48.89487 10.63425 22852 ft 411 kts 135°
2026-05-05 19:57 48.87515 10.66581 22391 ft 410 kts 135°
2026-05-05 19:57 48.85562 10.69702 21856 ft 405 kts 135°
2026-05-05 19:58 48.83633 10.72775 21296 ft 399 kts 136°
2026-05-05 19:58 48.81723 10.75811 20743 ft 395 kts 136°
2026-05-05 19:58 48.79852 10.78767 20198 ft 391 kts 136°
2026-05-05 19:58 48.77965 10.81718 19651 ft 388 kts 136°
2026-05-05 19:59 48.76091 10.84636 19116 ft 385 kts 136°
2026-05-05 19:59 48.74230 10.87533 18575 ft 382 kts 136°
2026-05-05 19:59 48.72379 10.90417 18032 ft 380 kts 136°
2026-05-05 19:59 48.70539 10.93280 17427 ft 378 kts 136°
2026-05-05 20:00 48.68713 10.96121 16869 ft 375 kts 136°
2026-05-05 20:00 48.66898 10.98943 16334 ft 372 kts 137°
2026-05-05 20:00 48.65100 11.01738 15814 ft 369 kts 137°
2026-05-05 20:00 48.63319 11.04504 15300 ft 366 kts 137°
2026-05-05 20:01 48.61568 11.07220 14806 ft 364 kts 137°
2026-05-05 20:01 48.59807 11.09948 14305 ft 362 kts 137°
2026-05-05 20:01 48.58039 11.12632 13802 ft 358 kts 141°
2026-05-05 20:01 48.56070 11.14888 13266 ft 353 kts 149°
2026-05-05 20:02 48.54035 11.16928 13028 ft 346 kts 149°
2026-05-05 20:02 48.52060 11.18932 12890 ft 338 kts 149°
2026-05-05 20:02 48.50184 11.21033 12718 ft 335 kts 143°
2026-05-05 20:02 48.48466 11.23373 12538 ft 332 kts 140°
2026-05-05 20:03 48.46767 11.25757 12370 ft 336 kts 141°
2026-05-05 20:03 48.45033 11.28146 12187 ft 339 kts 141°
2026-05-05 20:03 48.43299 11.30560 11991 ft 339 kts 136°
2026-05-05 20:03 48.42052 11.33599 11796 ft 346 kts 112°
2026-05-05 20:04 48.41648 11.37169 11628 ft 350 kts 90°
2026-05-05 20:04 48.41862 11.40813 11475 ft 350 kts 85°
2026-05-05 20:04 48.42164 11.44451 11284 ft 351 kts 84°
2026-05-05 20:04 48.42485 11.48089 11108 ft 351 kts 84°
2026-05-05 20:05 48.42804 11.51736 10910 ft 351 kts 84°
2026-05-05 20:05 48.43113 11.55383 10716 ft 351 kts 84°
2026-05-05 20:05 48.43413 11.59021 10536 ft 350 kts 84°
2026-05-05 20:05 48.43701 11.62589 10348 ft 342 kts 84°
2026-05-05 20:06 48.43980 11.66105 10165 ft 333 kts 85°
2026-05-05 20:06 48.44249 11.69524 9989 ft 324 kts 85°
2026-05-05 20:06 48.44508 11.72858 9837 ft 316 kts 85°
2026-05-05 20:06 48.44757 11.76077 9827 ft 302 kts 85°
2026-05-05 20:07 48.44996 11.79173 9809 ft 294 kts 85°
2026-05-05 20:07 48.45230 11.82234 9676 ft 294 kts 85°
2026-05-05 20:07 48.45463 11.85307 9533 ft 294 kts 85°
2026-05-05 20:07 48.45696 11.88373 9394 ft 294 kts 85°
2026-05-05 20:08 48.45927 11.91438 9245 ft 294 kts 85°
2026-05-05 20:08 48.46159 11.94506 9101 ft 295 kts 85°
2026-05-05 20:08 48.46389 11.97574 8958 ft 295 kts 85°
2026-05-05 20:08 48.46616 12.00605 8813 ft 295 kts 85°
2026-05-05 20:09 48.46846 12.03679 8672 ft 295 kts 85°
2026-05-05 20:09 48.47075 12.06752 8529 ft 295 kts 84°
2026-05-05 20:09 48.47302 12.09822 8381 ft 295 kts 84°
2026-05-05 20:09 48.47529 12.12893 8235 ft 295 kts 84°
2026-05-05 20:10 48.47755 12.15965 8093 ft 294 kts 84°
2026-05-05 20:10 48.47979 12.19013 7946 ft 292 kts 84°
2026-05-05 20:10 48.48200 12.22037 7803 ft 288 kts 84°
2026-05-05 20:10 48.48417 12.25020 7663 ft 285 kts 84°
2026-05-05 20:11 48.48633 12.27989 7513 ft 285 kts 84°
2026-05-05 20:11 48.48848 12.30955 7391 ft 285 kts 84°
2026-05-05 20:11 48.49061 12.33914 7259 ft 284 kts 84°
2026-05-05 20:11 48.49273 12.36880 7121 ft 284 kts 84°
2026-05-05 20:12 48.49304 12.39841 6964 ft 283 kts 103°
2026-05-05 20:12 48.48484 12.42469 6857 ft 276 kts 133°
2026-05-05 20:12 48.47022 12.44192 6735 ft 269 kts 159°
2026-05-05 20:12 48.45210 12.44789 6619 ft 262 kts 185°
2026-05-05 20:13 48.43489 12.44206 6487 ft 256 kts 208°
2026-05-05 20:13 48.42114 12.42590 6429 ft 249 kts 237°
2026-05-05 20:13 48.41463 12.40211 6406 ft 248 kts 256°
2026-05-05 20:13 48.41129 12.37629 6281 ft 253 kts 262°
2026-05-05 20:14 48.40889 12.34999 6151 ft 254 kts 263°
2026-05-05 20:14 48.40674 12.32352 6024 ft 254 kts 263°
2026-05-05 20:14 48.40463 12.29727 5893 ft 251 kts 263°
2026-05-05 20:14 48.40255 12.27147 5760 ft 245 kts 263°
2026-05-05 20:15 48.40053 12.24650 5649 ft 237 kts 263°
2026-05-05 20:15 48.39856 12.22222 5534 ft 230 kts 263°
2026-05-05 20:15 48.39666 12.19875 5427 ft 222 kts 263°
2026-05-05 20:15 48.39484 12.17605 5329 ft 215 kts 263°
2026-05-05 20:16 48.39308 12.15414 5231 ft 208 kts 263°
2026-05-05 20:16 48.39137 12.13287 5126 ft 201 kts 264°
2026-05-05 20:16 48.38974 12.11245 5040 ft 198 kts 264°
2026-05-05 20:16 48.38808 12.09160 4982 ft 200 kts 263°
2026-05-05 20:17 48.38642 12.07073 4728 ft 206 kts 264°
2026-05-05 20:17 48.38472 12.04926 4464 ft 207 kts 263°
2026-05-05 20:17 48.38303 12.02796 4207 ft 203 kts 263°
2026-05-05 20:17 48.38138 12.00708 3927 ft 198 kts 264°
2026-05-05 20:18 48.37979 11.98705 3663 ft 187 kts 264°
2026-05-05 20:18 48.37831 11.96814 3414 ft 177 kts 264°
2026-05-05 20:18 48.37691 11.95021 3182 ft 168 kts 264°
2026-05-05 20:18 48.37558 11.93324 2973 ft 159 kts 264°
2026-05-05 20:19 48.37433 11.91723 2777 ft 149 kts 264°
2026-05-05 20:19 48.37316 11.90225 2573 ft 141 kts 264°
2026-05-05 20:19 48.37204 11.88772 2384 ft 140 kts 264°
2026-05-05 20:19 48.37090 11.87306 2191 ft 144 kts 263°
2026-05-05 20:20 48.36974 11.85809 2007 ft 146 kts 264°
2026-05-05 20:20 48.36856 11.84281 1794 ft 146 kts 264°
2026-05-05 20:20 48.36740 11.82792 1621 ft 142 kts 264°
2026-05-05 20:20 48.36621 11.81319 1486 ft 140 kts 265°
2026-05-05 20:21 48.36538 11.80164 1473 ft 82 kts 263°
2026-05-05 20:21 48.36496 11.79610 1474 ft 36 kts 264°
2026-05-05 20:21 48.36467 11.79246 1484 ft 34 kts 263°
2026-05-05 20:21 48.36417 11.78959 1475 ft 21 kts 244°
2026-05-05 20:22 48.36337 11.78780 1478 ft 20 kts 234°
2026-05-05 20:22 48.36283 11.78667 1475 ft 20 kts 234°
2026-05-05 20:22 48.36208 11.78523 1474 ft 10 kts 225°
2026-05-05 20:22 48.36150 11.78480 1484 ft 9 kts 188°
2026-05-05 20:23 48.36086 11.78486 1480 ft 9 kts 174°
2026-05-05 20:23 48.36038 11.78535 1481 ft 9 kts 107°
2026-05-05 20:23 48.36040 11.78628 1484 ft 9 kts 85°
2026-05-05 20:23 48.36049 11.78730 1484 ft 12 kts 80°
2026-05-05 20:24 48.36059 11.78860 1482 ft 13 kts 84°
2026-05-05 20:24 48.36071 11.79008 1482 ft 16 kts 83°
2026-05-05 20:24 48.36083 11.79162 1484 ft 12 kts 84°
2026-05-05 20:24 48.36080 11.79293 1484 ft 11 kts 126°
2026-05-05 20:25 48.36006 11.79330 1479 ft 13 kts 173°
2026-05-05 20:25 48.35926 11.79355 1476 ft 8 kts 157°
2026-05-05 20:25 48.35860 11.79387 1482 ft 11 kts 175°
2026-05-05 20:25 48.35789 11.79403 1477 ft 2 kts 148°
2026-05-05 20:26 48.35788 11.79427 1481 ft 4 kts 93°
2026-05-05 20:26 48.35792 11.79504 1479 ft 12 kts 83°
2026-05-05 20:26 48.35805 11.79676 1478 ft 21 kts 83°
2026-05-05 20:26 48.35822 11.79904 1482 ft 20 kts 83°
2026-05-05 20:27 48.35827 11.80009 1484 ft 8 kts 102°
2026-05-05 20:27 48.35788 11.80062 1479 ft 8 kts 161°
2026-05-05 20:27 48.35737 11.80076 1477 ft 7 kts 172°
2026-05-05 20:27 48.35687 11.80090 1482 ft 7 kts 163°
2026-05-05 20:28 48.35639 11.80102 1474 ft 7 kts 172°
2026-05-05 20:28 48.35592 11.80112 1478 ft 7 kts 172°
2026-05-05 20:28 48.35545 11.80121 1484 ft 7 kts 172°
2026-05-05 20:28 48.35499 11.80128 1482 ft 7 kts 177°
2026-05-05 20:29 48.35469 11.80084 1480 ft 7 kts 259°
2026-05-05 20:29 48.35465 11.80017 1484 ft 5 kts 264°
2026-05-05 20:29 48.35465 11.80011 1484 ft 0 kts 264°